Home > Weather > Landshut > Past weeks

Flag for Germany Past Weather in Landshut, Bavaria, Germany — Yesterday and Last 2 Weeks

Now
68 °F

Clear.


Feels Like: 68 °F
Forecast: 61 / 76 °F
Wind: 5 mph from West

Location: Munich / Franz Josef Strauss Airport

Current Time: Jul 26, 2016 at 8:36:38 AM

Latest Report: Jul 26, 2016 at 8:20 AM


Visibility: 5 mi

Pressure: 30.12 "Hg

Humidity: 88%

Dew Point: 64 °F

Location of LandshutLocation

Past Weather in Landshut — Graph

°F

Landshut Temperature Yesterday

Maximum temperature yesterday: 79 °F (at 2:50 PM)
Minimum temperature yesterday: 63 °F (at 4:50 AM)
Average temperature yesterday: 70 °F

High & Low Weather Summary for the Past Weeks

 TemperatureHumidityPressure
High90 °F (Jul 11, 3:20 PM)100% (Jul 12, 3:20 AM)30.33 "Hg (Jul 12, 3:20 AM)
Low48 °F (Jul 15, 2:50 AM)32% (Jul 19, 5:50 PM)29.86 "Hg (Jul 11, 6:20 PM)
Average66 °F78%30.10 "Hg
* Reported Jul 11 7:20 AM — Jul 26 7:20 AM, Landshut, Weather by CustomWeather, © 2016

Note: Actual official high and low records may vary slightly from our data, if they occured in-between our weather recording intervals... More about our weather records

Advertising

Landshut Weather History for the Previous 24 Hours

Scroll right to see more
 ConditionsComfort  
Time TempWeatherWind HumidityBarometerVisibility
7:20 AM
Tue, Jul 26
64 °FPassing clouds.7 mph100%30.12 "Hg4 mi
6:50 AM64 °FScattered clouds.7 mph100%30.12 "Hg4 mi
6:20 AM63 °FPassing clouds.6 mph100%30.12 "Hg4 mi
5:50 AM61 °FFog.6 mph100%30.12 "Hg3 mi
5:20 AM61 °FClear.3 mph100%30.12 "Hg4 mi
4:50 AM61 °FClear.5 mph100%30.12 "Hg6 mi
4:20 AM61 °FPassing clouds.3 mph100%30.12 "HgN/A
3:50 AM63 °FClear.5 mph100%30.12 "Hg10 mi
3:20 AM63 °FClear.7 mph94%30.12 "Hg10 mi
2:50 AM63 °FClear.5 mph100%30.12 "Hg10 mi
2:20 AM63 °FPassing clouds.6 mph100%30.12 "HgN/A
1:50 AM63 °FPassing clouds.6 mph100%30.12 "HgN/A
1:20 AM64 °FPassing clouds.3 mph94%30.12 "HgN/A
12:50 AM64 °FPassing clouds.3 mph94%30.12 "HgN/A
12:20 AM64 °FClear.2 mph94%30.12 "Hg10 mi
11:50 PM
Mon, Jul 25
63 °FPassing clouds.3 mph100%30.12 "HgN/A
11:20 PM63 °FClear.3 mph100%30.12 "Hg10 mi
10:50 PM63 °FClear.2 mph100%30.12 "Hg10 mi
10:20 PM64 °FClear.2 mph94%30.12 "Hg10 mi
9:50 PM64 °FSunny.3 mph94%30.12 "Hg10 mi
9:20 PM64 °FBroken clouds.2 mph100%30.12 "HgN/A
8:50 PM66 °FThundershowers. Broken clouds.5 mph94%30.09 "HgN/A
8:20 PM70 °FStrong thunderstorms. Broken clouds.14 mph73%30.09 "HgN/A
7:50 PM75 °FThundershowers. Broken clouds.5 mph69%30.09 "HgN/A
7:20 PM77 °FBroken clouds.3 mph61%30.09 "HgN/A
6:50 PM77 °FPartly sunny.5 mph57%30.09 "HgN/A
6:20 PM77 °FPartly sunny.5 mph61%30.07 "HgN/A
5:50 PM77 °FPartly sunny.2 mph61%30.09 "HgN/A
5:20 PM75 °FScattered showers. Partly sunny.3 mph65%30.07 "HgN/A
4:50 PM73 °FSprinkles. Partly sunny.9 mph65%30.07 "HgN/A
4:20 PM75 °FThundershowers. Broken clouds.15 mph61%30.09 "HgN/A
3:50 PM79 °FThundershowers. Scattered clouds.6 mph54%30.07 "HgN/A
3:20 PM77 °FPartly sunny.7 mph61%30.09 "HgN/A
2:50 PM79 °FPartly sunny.5 mph65%30.07 "HgN/A
2:20 PM77 °FScattered showers. Partly sunny.8 mph57%30.09 "HgN/A
1:50 PM75 °FScattered showers. Partly sunny.7 mph65%30.09 "HgN/A
1:20 PM75 °FSprinkles. Broken clouds.12 mph69%30.09 "HgN/A
12:50 PM73 °FSprinkles. Broken clouds.12 mph78%30.09 "HgN/A
12:20 PM75 °FScattered showers. Partly sunny.6 mph74%30.09 "HgN/A
11:50 AM75 °FScattered clouds.5 mph65%30.09 "HgN/A
11:20 AM72 °FScattered clouds.6 mph78%30.09 "HgN/A
10:50 AM75 °FScattered clouds.6 mph74%30.09 "HgN/A
10:20 AM72 °FBroken clouds.5 mph78%30.12 "HgN/A
9:50 AM72 °FBroken clouds.5 mph78%30.12 "HgN/A
9:20 AM70 °FPartly sunny.3 mph88%30.12 "HgN/A
8:50 AM70 °FPartly sunny.2 mph83%30.12 "HgN/A
8:20 AM70 °FSunny.2 mph83%30.12 "Hg10 mi
Weather by CustomWeather, © 2016

See weather overviewHow to use our weather pages